Location: Corcelles
(46.1547°N, 4.7234°E)
Time: 21:00:44
(UTC+00:00)

Cosmos 1674 Rocket - Pass Details

Date: 14 July 2020
Orbit: 602 x 631 km, 82.5° (Epoch: 14 August)

Event Time Altitude Azimuth Distance (km) Brightness Sun altitude
Rises 02:41:32 0° 346° (NNW) 2,887 7.5 -11.6°
Reaches altitude 10° 02:43:48 10° 342° (NNW) 1,973 6.6 -11.3°
Maximum altitude 02:48:02 52° 266° (W) 762 3.7 -10.8°
Drops below altitude 10° 02:52:12 10° 190° (S) 1,944 5.6 -10.3°
Enters shadow 02:52:19 - 190° (S) 1,994 5.7 -10.3°
